Waarnemingen

Advertentie
Mijn weer
Garmisch-Partenkirchen, Duitsland (10963): temperatuur & dauwpunt: 12.12.2017 06:00:00 - 18.12.2017 06:00:00 (CET)Garmisch-Partenkirchen, Duitsland (10963): temperatuur 5cm & temperatuur -5cm: 12.12.2017 06:00:00 - 18.12.2017 06:00:00 (CET)Garmisch-Partenkirchen, Duitsland (10963): temperatuur -20cm & temperatuur -100cm: 12.12.2017 06:00:00 - 18.12.2017 06:00:00 (CET)Garmisch-Partenkirchen, Duitsland (10963): windsnelheid & windstoten: 12.12.2017 06:00:00 - 18.12.2017 06:00:00 (CET)Garmisch-Partenkirchen, Duitsland (10963): windrichting: 12.12.2017 06:00:00 - 18.12.2017 06:00:00 (CET)Garmisch-Partenkirchen, Duitsland (10963): luchtdruk: 12.12.2017 06:00:00 - 18.12.2017 06:00:00 (CET)Garmisch-Partenkirchen, Duitsland (10963): zicht: 12.12.2017 06:00:00 - 18.12.2017 06:00:00 (CET)Garmisch-Partenkirchen, Duitsland (10963): Zonneschijnduur: 12.12.2017 06:00:00 - 18.12.2017 06:00:00 (CET)Garmisch-Partenkirchen, Duitsland (10963): neerslag: 12.12.2017 06:00:00 - 18.12.2017 06:00:00 (CET)
Datum & Tijd tt [°C] td [°C] tt 5cm [°C] tt -5cm [°C] tt -20cm [°C] tt -100cm [°C] ff [km/u] ff [kn] fx [km/u] fx [kn] dd ppp [hPa] vv [km] sd [min] rr [mm]
18.12.2017 06:00:00 -8,8 -9,8 -11,3 0,5 1,0 5,1 0 0 5 3 N 1028,8 61 0 0,0
18.12.2017 05:00:00 -9,2 -10,2 -13,2 0,5 1,0 5,1 0 0 6 3 N 1029,3 49 0 0,0
18.12.2017 04:00:00 -8,2 -9,2 -10,8 0,5 1,0 5,1 0 0 6 4 N 1029,6 36 0 0,0
18.12.2017 03:00:00 -6,9 -7,8 -10,1 0,5 1,0 5,1 0 0 5 3 N 1029,8 20 0 0,0
18.12.2017 02:00:00 -4,9 -5,7 -6,2 0,5 1,0 5,1 3 2 5 3 ZZW 1029,4 23 0 0,0
18.12.2017 01:00:00 -4,5 -5,1 -6,2 0,5 1,0 5,1 0 0 6 3 N 1029,7 20 0 0,0
18.12.2017 00:00:00 -4,2 -4,8 -5,4 0,5 1,0 5,1 0 0 6 3 N 1030,0 20 0 0,0
17.12.2017 23:00:00 -3,3 -4,0 -5,4 0,5 1,0 5,1 3 2 7 4 W 1029,9 15 0 0,0
17.12.2017 22:00:00 -2,8 -3,6 -4,3 0,5 1,0 5,1 4 2 7 4 WNW 1029,6 13 0 0,0
17.12.2017 21:00:00 -2,7 -3,4 -4,0 0,5 1,0 5,1 2 1 8 4 W 1029,4 15 0 0,0
17.12.2017 20:00:00 -2,6 -3,3 -3,8 0,5 1,0 5,1 2 1 6 3 ZW 1029,0 23 0 0,0
17.12.2017 19:00:00 -2,5 -3,2 -3,6 0,5 1,0 5,1 3 2 8 4 W 1028,7 22 0 0,0
17.12.2017 18:00:00 -2,1 -2,9 -3,9 0,5 1,0 5,1 0 0 5 3 N 1028,0 27 0 0,0
17.12.2017 17:00:00 -2,0 -2,8 -3,2 0,5 1,0 5,1 4 2 6 3 WZW 1027,0 24 0 0,0
17.12.2017 16:00:00 -1,3 -2,9 -2,8 0,4 1,0 5,1 4 2 10 5 O 1026,0 30 0 0,0
17.12.2017 15:00:00 -0,9 -3,4 -2,0 0,4 1,0 5,1 2 1 11 6 O 1025,0 36 0 0,0
17.12.2017 14:00:00 -0,3 -2,9 0,0 0,4 1,0 5,1 2 1 9 5 ZZW 1024,4 36 0 0,1
17.12.2017 13:00:00 -0,6 -2,3 0,0 0,4 1,0 5,1 5 3 19 10 O 1024,4 2,5 0 0,6
17.12.2017 12:00:00 -0,9 -2,0 -0,4 0,4 1,0 5,2 7 4 15 8 O 1024,6 1,7 0 1,4
17.12.2017 11:00:00 -0,5 -2,0 -0,1 0,4 1,0 5,2 0 0 12 6 N 1024,3 1,6 0 1,4
17.12.2017 10:00:00 -0,9 -1,7 -0,7 0,4 1,0 5,2 3 2 9 5 O 1023,7 1,4 0 1,9
17.12.2017 09:00:00 -1,3 -2,0 -0,9 0,4 1,0 5,2 7 4 13 7 O 1023,2 0,4 0 2,5
17.12.2017 08:00:00 -1,4 -1,8 -1,1 0,4 1,0 5,2 4 2 6 3 ZW 1022,7 1,2 0 0,3
17.12.2017 07:00:00 -1,5 -2,1 -1,1 0,4 1,0 5,2 0 0 5 3 N 1022,3 2,5 0 0,4
17.12.2017 06:00:00 -1,3 -2,0 -1,2 0,4 1,0 5,2 3 2 6 4 ZO 1021,8 1,6 0 0,6
17.12.2017 05:00:00 -1,5 -2,0 -1,4 0,4 1,0 5,2 0 0 6 3 N 1021,5 1,7 0 0,7
17.12.2017 04:00:00 -1,7 -2,3 -1,8 0,4 1,0 5,2 3 1 6 3 ZW 1021,3 4,9 0 0,2
17.12.2017 03:00:00 -1,6 -2,1 -1,4 0,4 1,0 5,2 0 0 5 3 N 1021,0 2,3 0 0,1
17.12.2017 02:00:00 -1,4 -1,8 -1,4 0,4 1,0 5,2 3 2 5 3 ZZW 1020,7 4,8 0 0,3
17.12.2017 01:00:00 -1,3 -1,9 -1,3 0,4 1,0 5,2 2 1 4 2 ZW 1020,6 1,9 0 0,5
17.12.2017 00:00:00 -1,2 -1,9 -1,3 0,4 1,0 5,2 3 2 9 5 O 1020,5 1,0 0 0,5
16.12.2017 23:00:00 -1,0 -1,6 -1,3 0,4 1,0 5,2 5 3 9 5 OZO 1019,9 1,6 0 0,7
16.12.2017 22:00:00 -1,0 -1,6 -1,6 0,4 1,0 5,2 2 1 6 3 ZZW 1019,5 2,5 0 0,1
16.12.2017 21:00:00 -1,0 -1,8 -2,3 0,4 1,0 5,2 0 0 6 3 N 1019,0 7 0 0,1
16.12.2017 20:00:00 -0,8 -1,8 -1,7 0,4 1,0 5,2 2 1 9 5 N 1018,5 7 0 0,3
16.12.2017 19:00:00 -0,6 -1,5 -1,1 0,4 1,0 5,2 3 1 13 7 ZW 1017,4 4,3 0 0,1
16.12.2017 18:00:00 -0,4 -1,5 -0,8 0,4 1,0 5,2 8 4 16 9 NO 1016,1 4,9 0 0,6
16.12.2017 17:00:00 -0,2 -1,1 -0,5 0,4 1,0 5,2 6 3 15 8 ONO 1015,1 0,7 0 1,1
16.12.2017 16:00:00 0,5 -0,5 -0,1 0,4 1,0 5,2 0 0 8 4 N 1013,3 5 0 0,0
16.12.2017 15:00:00 0,9 -0,7 0,0 0,4 1,0 5,2 2 1 6 4 N 1012,0 26 0 0,0
16.12.2017 14:00:00 1,7 -2,2 0,5 0,4 1,0 5,2 3 1 6 3 O 1011,1 60 4 0,0
16.12.2017 13:00:00 0,9 -1,7 -0,5 0,4 1,0 5,2 0 0 4 2 N 1011,0 29 0 0,0
16.12.2017 12:00:00 0,3 -2,7 -0,8 0,4 1,0 5,2 4 2 7 4 O 1010,9 45 0 0,0
16.12.2017 11:00:00 -0,2 -1,9 -0,4 0,4 1,0 5,2 2 1 6 4 ZO 1010,3 34 0 0,0
16.12.2017 10:00:00 -1,4 -2,3 -2,0 0,4 1,0 5,2 5 3 8 4 Z 1010,2 18 0 0,0
16.12.2017 09:00:00 -2,2 -2,9 -2,8 0,4 1,0 5,2 4 2 6 3 ZW 1009,6 22 0 0,0
16.12.2017 08:00:00 -2,5 -3,3 -3,5 0,4 1,0 5,2 0 0 6 3 N 1008,9 24 0 0,0
16.12.2017 07:00:00 -2,7 -3,4 -3,6 0,4 1,0 5,2 4 2 7 4 WZW 1008,1 21 0 0,0
16.12.2017 06:00:00 -2,6 -3,3 -3,8 0,4 1,0 5,2 2 1 5 3 N 1007,5 27 0 0,0
16.12.2017 05:00:00 -2,8 -3,4 -3,9 0,4 1,0 5,2 0 0 6 3 N 1006,9 20 0 0,0
16.12.2017 04:00:00 -3,0 -3,6 -4,5 0,4 1,0 5,2 0 0 7 4 N 1006,4 25 0 0,0
16.12.2017 03:00:00 -3,0 -3,7 -4,4 0,4 1,0 5,2 3 1 8 4 O 1006,1 29 0 0,0
16.12.2017 02:00:00 -3,6 -4,4 -5,5 0,4 1,0 5,2 3 1 7 4 W 1006,1 13 0 0,0
16.12.2017 01:00:00 -3,8 -4,4 -6,5 0,4 1,0 5,2 3 2 5 3 W 1006,2 21 0 0,0
16.12.2017 00:00:00 -3,6 -4,3 -5,6 0,4 1,0 5,2 3 1 6 3 Z 1006,3 20 0 0,0
15.12.2017 23:00:00 -4,2 -4,9 -8,0 0,4 1,0 5,2 3 1 6 3 ZW 1006,2 24 0 0,0
15.12.2017 22:00:00 -2,9 -3,5 -5,3 0,4 1,0 5,3 4 2 10 5 W 1005,6 30 0 0,0
15.12.2017 21:00:00 -3,2 -3,6 -6,7 0,4 1,0 5,3 7 4 10 5 ZZW 1005,4 27 0 0,0
15.12.2017 20:00:00 -3,0 -3,5 -7,5 0,4 1,0 5,3 3 2 10 6 WZW 1005,0 19 0 0,0
15.12.2017 19:00:00 -1,8 -2,3 -4,5 0,4 1,0 5,3 4 2 8 4 NW 1004,4 21 0 0,0
15.12.2017 18:00:00 -1,6 -2,0 -4,9 0,4 1,1 5,3 6 3 9 5 ZW 1004,0 31 0 0,0
15.12.2017 17:00:00 -1,2 -1,6 -6,8 0,5 1,1 5,3 0 0 9 5 N 1003,4 51 0 0,0
15.12.2017 16:00:00 -0,4 -0,8 -3,8 0,5 1,1 5,3 5 3 9 5 ZW 1002,7 7 0 0,0
15.12.2017 15:00:00 0,6 -0,5 -2,4 0,5 1,1 5,3 4 2 8 4 WZW 1001,5 20 1 0,0
15.12.2017 14:00:00 1,9 0,3 0,0 0,5 1,0 5,3 5 3 7 4 ZZW 1000,9 16 31 0,0
15.12.2017 13:00:00 2,1 0,4 1,9 0,5 1,1 5,3 5 3 11 6 Z 1001,1 13 31 0,0
15.12.2017 12:00:00 1,4 -0,1 1,5 0,5 1,1 5,3 4 2 9 5 NO 1001,4 17 3 0,0
15.12.2017 11:00:00 0,5 -0,1 0,3 0,5 1,1 5,3 5 3 8 4 ZZW 1001,9 1,3 0 0,0
15.12.2017 10:00:00 0,5 0,0 0,0 0,5 1,1 5,3 3 1 7 4 N 1001,3 5 0 0,0
15.12.2017 09:00:00 0,2 -0,2 -1,1 0,5 1,1 5,3 0 0 5 3 N 1001,1 11 0 0,0
15.12.2017 08:00:00 0,2 0,0 -0,1 0,5 1,1 5,3 0 0 6 3 N 1000,5 12 0 0,0
15.12.2017 07:00:00 0,3 0,1 -0,1 0,5 1,1 5,3 4 2 8 4 ZZW 1000,1 8 0 0,0
15.12.2017 06:00:00 0,5 0,0 -0,1 0,5 1,1 5,3 4 2 12 7 NNW 1000,3 17 0 0,2
15.12.2017 05:00:00 0,3 0,0 -0,1 0,5 1,1 5,3 4 2 8 5 N 1000,0 8 0 0,5
15.12.2017 04:00:00 0,3 -0,1 -0,1 0,5 1,1 5,3 3 1 10 6 NO 999,4 1,9 0 2,6
15.12.2017 03:00:00 0,4 0,2 -0,1 0,5 1,1 5,3 7 4 11 6 ZW 997,9 12 0 0,5
15.12.2017 02:00:00 0,3 0,0 -0,1 0,5 1,1 5,3 3 2 6 3 N 998,1 2,7 0 0,9
15.12.2017 01:00:00 0,4 0,2 -0,1 0,5 1,1 5,3 7 4 10 5 ZZW 999,1 4,2 0 0,4
15.12.2017 00:00:00 0,3 0,0 -0,1 0,5 1,1 5,3 6 4 11 6 ZZW 999,4 2,5 0 1,5
14.12.2017 23:00:00 0,3 -0,2 -0,1 0,5 1,1 5,3 0 0 8 4 N 1000,9 2,1 0 1,1
14.12.2017 22:00:00 0,4 0,1 -0,1 0,5 1,1 5,3 6 3 9 5 W 1000,4 3,2 0 0,1
14.12.2017 21:00:00 0,4 -0,1 -0,1 0,5 1,1 5,3 0 0 9 5 N 1001,3 3,1 0 0,4
14.12.2017 20:00:00 0,5 0,2 0,0 0,5 1,1 5,3 5 3 8 4 W 1002,4 5 0 0,1
14.12.2017 19:00:00 0,5 0,1 -0,1 0,5 1,1 5,3 4 2 10 5 NNW 1003,3 3,4 0 0,0
14.12.2017 18:00:00 0,5 0,1 0,0 0,5 1,1 5,3 5 3 10 5 ZZW 1004,1 3,4 0 0,1
14.12.2017 17:00:00 0,5 0,2 -0,1 0,5 1,1 5,3 5 3 8 5 WZW 1005,7 5 0 0,5
14.12.2017 16:00:00 0,6 0,1 0,0 0,5 1,1 5,3 6 3 8 4 Z 1006,0 3,6 0 0,2
14.12.2017 15:00:00 0,8 -0,1 0,2 0,5 1,1 5,3 4 2 10 5 NNO 1006,0 7 0 0,4
14.12.2017 14:00:00 1,4 0,0 0,5 0,4 1,1 5,3 0 0 8 4 N 1006,4 8 0 0,2
14.12.2017 13:00:00 2,1 -0,3 1,2 0,4 1,1 5,3 5 3 15 8 NO 1005,9 70 0 0,0
14.12.2017 12:00:00 1,7 0,2 1,2 0,4 1,1 5,3 5 3 14 8 N 1007,1 65 0 0,1
14.12.2017 11:00:00 1,5 0,1 0,7 0,4 1,1 5,3 4 2 22 12 Z 1008,1 12 0 0,0
14.12.2017 10:00:00 1,8 -0,8 0,5 0,4 1,1 5,3 13 7 33 18 WZW 1007,1 70 0 0,7
14.12.2017 09:00:00 3,0 -0,4 0,9 0,4 1,1 5,3 10 5 20 11 ZO 1003,9 64 0 0,0
14.12.2017 08:00:00 0,9 -0,7 -0,4 0,4 1,1 5,4 5 3 17 9 ZO 1002,7 54 0 0,1
14.12.2017 07:00:00 0,3 -0,5 -0,7 0,4 1,1 5,4 6 3 16 8 O 1002,3 70 0 0,0
14.12.2017 06:00:00 -0,5 -1,2 -1,5 0,4 1,1 5,4 8 5 14 8 ZW 1001,5 70 0 0,0
14.12.2017 05:00:00 -0,3 -1,2 -1,7 0,4 1,1 5,4 6 4 11 6 ZZW 1001,3 70 0 0,0
14.12.2017 04:00:00 -0,5 -1,1 -2,2 0,4 1,1 5,4 5 3 12 7 WZW 1001,5 70 0 0,0
14.12.2017 03:00:00 0,3 -0,9 -2,1 0,4 1,1 5,4 6 3 29 16 WNW 1001,9 70 0 0,0
14.12.2017 02:00:00 0,8 -1,4 -0,5 0,4 1,1 5,4 5 3 21 12 NNW 1002,1 70 0 0,0
14.12.2017 01:00:00 -1,4 -2,6 -2,1 0,4 1,1 5,4 5 3 18 10 N 1003,3 70 0 0,0
14.12.2017 00:00:00 -3,1 -3,9 -3,5 0,4 1,1 5,4 5 3 10 6 WNW 1004,8 67 0 0,0
13.12.2017 23:00:00 -3,9 -4,6 -5,4 0,4 1,1 5,4 5 3 12 6 NNO 1006,8 46 0 0,0
13.12.2017 22:00:00 -4,4 -4,9 -7,9 0,4 1,1 5,4 5 3 10 5 W 1008,1 22 0 0,0
13.12.2017 21:00:00 -3,9 -4,9 -6,4 0,4 1,1 5,4 4 2 9 5 WZW 1010,6 42 0 0,0
13.12.2017 20:00:00 -3,6 -4,3 -5,8 0,4 1,1 5,4 4 2 9 5 Z 1011,4 44 0 0,0
13.12.2017 19:00:00 -3,2 -4,2 -6,0 0,4 1,1 5,4 5 3 9 5 ZW 1011,6 36 0 0,0
13.12.2017 18:00:00 -4,2 -4,9 -8,8 0,4 1,1 5,4 5 3 8 4 WZW 1013,0 21 0 0,0
13.12.2017 17:00:00 -2,9 -3,7 -7,5 0,4 1,1 5,4 2 1 7 4 WNW 1013,1 28 0 0,0
13.12.2017 16:00:00 -2,3 -3,8 -4,2 0,5 1,1 5,4 4 2 8 4 WZW 1013,3 58 0 0,0
13.12.2017 15:00:00 -2,1 -3,8 -5,3 0,5 1,1 5,4 4 2 12 6 NNW 1013,9 62 20 0,0
13.12.2017 14:00:00 -0,9 -4,7 -3,1 0,5 1,1 5,4 8 4 13 7 WZW 1014,9 19 60 0,0
13.12.2017 13:00:00 0,9 -3,5 2,6 0,5 1,1 5,4 5 3 13 7 ZZW 1016,6 35 60 0,0
13.12.2017 12:00:00 -0,1 -3,6 1,3 0,5 1,1 5,4 4 2 6 3 Z 1018,6 24 60 0,0
13.12.2017 11:00:00 -3,0 - -4,1 0,5 1,1 5,4 3 2 8 5 ZW 1020,7 13 49 0,0
13.12.2017 10:00:00 -5,6 -6,7 -9,6 0,5 1,1 5,4 4 2 6 3 ZW 1022,0 9 0 0,0
13.12.2017 09:00:00 -4,8 -5,6 -9,6 0,5 1,1 5,4 4 2 9 5 ZZW 1022,6 27 0 0,0
13.12.2017 08:00:00 -5,1 -5,6 -11,2 0,5 1,1 5,4 2 1 8 5 Z 1023,1 37 0 0,0
13.12.2017 07:00:00 -4,1 -4,7 -10,0 0,5 1,1 5,4 2 1 8 4 ZW 1023,0 48 0 0,0
13.12.2017 06:00:00 -2,8 -3,7 -4,3 0,5 1,1 5,5 3 2 10 5 WZW 1022,6 59 0 0,0
13.12.2017 05:00:00 -3,0 -3,6 -4,3 0,5 1,1 5,5 3 2 5 3 ZW 1022,6 21 0 0,0
13.12.2017 04:00:00 -3,7 -4,1 -7,3 0,5 1,1 5,5 4 2 6 4 Z 1022,6 18 0 0,0
13.12.2017 03:00:00 -3,9 -4,6 -8,2 0,5 1,1 5,5 4 2 6 4 ZW 1022,8 20 0 0,0
13.12.2017 02:00:00 -3,2 -3,7 -8,2 0,5 1,1 5,5 4 2 6 3 Z 1022,2 14 0 0,0
13.12.2017 01:00:00 -2,1 -2,4 -6,8 0,5 1,1 5,5 0 0 6 3 NNW 1021,6 6 0 0,0
13.12.2017 00:00:00 -0,8 -1,4 -2,8 0,5 1,1 5,5 0 0 7 4 N 1021,1 7 0 0,1
12.12.2017 23:00:00 -0,1 -0,5 -0,8 0,5 1,1 5,5 0 0 6 4 N 1020,6 2,7 0 0,0
12.12.2017 22:00:00 -0,3 -0,8 -1,1 0,5 1,1 5,5 0 0 6 3 N 1020,1 2,4 0 0,0
12.12.2017 21:00:00 -0,4 -0,9 -1,8 0,5 1,1 5,5 0 0 5 3 N 1019,4 1,9 0 0,1
12.12.2017 20:00:00 -0,1 -0,5 -1,0 0,5 1,1 5,5 0 0 5 3 N 1018,9 2,7 0 0,0
12.12.2017 19:00:00 0,0 -0,5 -0,4 0,5 1,1 5,5 3 1 5 3 NNO 1018,4 5 0 0,3
12.12.2017 18:00:00 0,0 -0,7 -0,5 0,5 1,1 5,5 3 2 7 4 O 1017,3 3,9 0 0,3
12.12.2017 17:00:00 0,0 -0,6 -0,2 0,5 1,1 5,5 6 3 8 4 O 1016,7 3,9 0 0,1
12.12.2017 16:00:00 0,1 -0,6 -0,1 0,4 1,1 5,5 5 3 9 5 O 1015,3 7 0 0,6
12.12.2017 15:00:00 0,6 -0,8 0,0 0,4 1,1 5,5 4 2 9 5 O 1014,3 2,3 0 0,4
12.12.2017 14:00:00 1,0 -0,7 0,3 0,4 1,1 5,5 3 2 11 6 ZW 1013,5 6 0 0,2
12.12.2017 13:00:00 0,9 -0,7 0,6 0,4 1,1 5,5 7 4 17 9 O 1012,8 4,8 0 0,2
12.12.2017 12:00:00 0,9 -0,7 0,4 0,4 1,1 5,5 7 4 17 9 O 1012,1 4,9 0 0,2
12.12.2017 11:00:00 1,3 -0,2 0,2 0,4 1,1 5,5 8 4 19 10 ONO 1011,0 8 0 0,5
12.12.2017 10:00:00 1,1 0,2 0,0 0,4 1,1 5,5 7 4 17 9 O 1009,6 4,7 0 0,7
12.12.2017 09:00:00 0,6 0,1 0,0 0,4 1,1 5,5 0 0 7 4 N 1007,7 4,6 0 0,3
12.12.2017 08:00:00 0,3 -0,1 0,0 0,4 1,1 5,5 3 2 6 4 W 1005,9 14 0 0,1
12.12.2017 07:00:00 0,4 0,1 0,0 0,4 1,1 5,5 0 0 7 4 N 1004,0 12 0 0,2
12.12.2017 06:00:00 0,3 0,0 0,0 0,4 1,1 5,5 4 2 8 4 W 1002,4 22 0 0,0

tt = temperatuur
td = dauwpunt
tt 5cm = temperatuur 5cm
tt -5cm = temperatuur -5cm
tt -20cm = temperatuur -20cm
tt -100cm = temperatuur -100cm
ff = windsnelheid
fx = windstoten
dd = windrichting
ppp = luchtdruk
vv = zicht
sd = Zonneschijnduur
rr = neerslag

Weerstations in de omgeving